Temperature
28 27 27 28 29 29 28 28 27 28 29 28 27 26 27 26 26 25 25 24 23 23 22 21 20 19 18 18 17 17 17 17 17 16 16 16 16 16 16 16 16 16 15 15
27 27 29 29 29 29 28 27 28 28 29 28 27 27 27 27 26 25 25 24 23 23 21 20 20 19 18 18 17 17 17 16 16 16 16 16 16 16 16 15 15 15 15 15
27 28 30 29 29 28 28 28 28 28 29 29 27 26 26 26 26 25 25 24 23 23 21 20 19 19 18 18 17 17 16 16 16 16 16 15 15 15 15 15 15 15 15 15
28 30 30 29 29 28 28 29 29 29 28 28 28 26 25 25 25 25 25 24 23 22 21 20 19 18 18 17 17 17 16 16 16 16 15 15 15 15 15 15 15 15 15 15
29 30 30 29 29 29 29 29 29 28 27 26 27 26 26 26 25 25 25 24 23 22 21 20 19 18 18 17 17 16 16 16 15 15 15 15 15 15 15 15 15 15 15 15
30 30 30 30 30 30 29 29 29 28 27 25 25 25 25 25 25 25 25 24 23 22 21 20 19 18 18 17 17 16 16 16 15 15 15 15 15 15 15 15 14 14 14 14
28 29 30 31 30 30 29 27 26 25 25 25 26 26 25 25 26 25 25 24 23 22 21 20 19 19 18 17 17 16 16 16 15 15 15 14 14 14 14 14 14 14 14 14
27 28 29 30 30 29 28 28 25 24 24 26 26 25 25 25 25 25 24 23 23 22 21 20 19 18 18 17 17 16 16 15 15 14 14 14 14 14 14 14 14 14 14 14
28 27 30 30 30 30 28 28 28 26 26 25 25 25 24 25 25 25 24 23 23 22 21 20 19 18 18 17 16 16 15 15 15 14 14 14 14 14 14 14 14 14 14 14
29 27 29 30 30 30 29 29 27 26 25 24 25 25 24 24 25 25 24 24 23 22 21 20 19 18 17 17 16 16 15 15 15 14 14 14 14 14 14 14 14 14 13 13
29 27 28 29 28 28 29 28 27 27 26 25 24 24 26 25 25 25 24 23 22 21 20 20 19 18 17 16 16 15 15 15 14 14 14 14 14 14 14 14 14 13 13 13
28 27 27 27 29 30 29 29 28 26 25 26 25 24 26 25 25 25 24 23 22 21 20 19 18 18 17 16 16 15 15 15 14 14 14 14 14 14 13 13 13 13 13 13
27 26 25 26 27 28 28 28 28 27 26 26 25 24 25 25 24 24 24 23 22 21 20 19 18 17 17 16 16 15 15 15 14 14 14 14 14 13 13 13 13 13 13 13
26 26 25 25 26 27 27 27 28 27 26 25 25 25 24 25 24 24 23 23 22 20 20 19 18 17 17 16 15 15 15 15 14 14 14 13 13 13 13 13 13 13 13 12
27 25 26 26 27 27 27 27 27 26 26 25 25 25 25 24 24 23 23 22 22 21 20 19 18 17 16 16 15 15 15 14 14 14 14 13 13 13 13 13 13 13 13 12
26 25 25 25 27 27 27 27 27 27 26 26 26 25 25 24 23 23 22 22 21 21 20 19 18 17 16 16 15 15 15 14 14 14 14 13 13 13 13 13 13 13 12 12
26 25 24 24 26 26 25 26 26 25 26 25 24 24 24 23 23 22 21 21 21 20 20 19 18 17 16 16 15 15 15 14 14 14 14 13 13 13 13 13 13 12 12 12
25 24 24 24 25 24 25 27 27 26 25 25 24 24 23 23 22 22 21 21 20 20 19 18 17 17 16 16 15 15 15 14 14 14 13 13 13 13 13 13 13 12 12 12
25 24 24 24 24 24 25 26 26 25 24 24 23 23 23 23 22 21 21 20 20 19 18 18 17 17 16 16 15 15 14 14 14 14 13 13 13 13 13 13 12 12 12 12
25 24 24 24 23 23 24 25 25 25 23 23 22 22 22 22 21 21 20 19 19 18 18 17 17 16 16 15 15 15 14 14 14 14 13 13 13 13 13 13 12 12 12 12
24 23 23 23 23 23 24 25 25 23 21 22 21 21 20 20 20 19 19 19 18 18 17 17 16 16 16 15 15 14 14 14 14 14 13 13 13 13 13 13 13 12 12 12
24 23 23 23 22 22 23 24 22 21 21 21 20 20 20 19 19 19 19 18 18 17 17 16 16 16 15 15 15 14 14 14 14 14 13 13 13 13 13 13 13 12 12 12
23 23 23 22 22 22 22 22 21 21 21 21 20 20 19 19 18 18 18 17 17 17 16 16 16 15 15 15 14 14 14 14 13 13 13 13 13 13 13 13 13 12 12 12
24 23 23 23 22 22 22 22 21 21 20 20 20 19 19 18 18 18 17 17 16 16 16 16 15 15 15 14 14 14 14 13 13 13 13 13 13 13 13 13 13 12 12 12
22 22 22 22 22 22 22 21 21 20 20 20 19 19 18 18 17 17 16 16 16 16 16 15 15 15 14 14 14 14 13 13 13 13 13 13 13 13 13 13 13 13 13 13
21 21 20 20 20 21 20 20 20 20 20 19 19 18 18 18 17 17 16 16 16 15 15 15 15 14 14 14 14 14 13 13 13 13 13 13 13 13 13 13 13 13 13 13
Wind_Speed
10 10 11 12 11 9 9 8 7 8 5 3 5 4 4 6 5 4 5 5 4 4 5 6 5 4 4 3 3 3 2 2 1 1 1 1 1 1 1 2 2 2 1 1
10 13 14 12 8 9 10 10 9 7 4 4 4 5 5 7 6 5 5 5 4 4 4 5 5 4 4 3 3 3 2 2 0 0 1 1 1 1 1 0 2 2 2 1
13 12 12 10 8 10 11 9 9 7 6 8 6 6 4 5 5 5 5 4 3 4 5 4 4 3 3 3 2 2 2 1 0 0 1 1 1 2 1 0 1 1 1 1
12 12 12 10 9 9 9 7 8 8 8 7 7 5 4 6 5 4 4 4 3 4 5 4 3 3 3 3 3 3 3 2 1 1 1 2 1 1 1 0 0 0 1 1
12 11 11 11 9 8 8 8 9 8 8 8 7 6 4 6 5 5 4 4 4 4 5 2 2 3 3 3 3 4 3 2 1 0 1 1 2 1 1 1 0 1 1 1
13 10 10 10 8 7 7 8 10 9 8 8 7 6 4 3 5 5 5 4 5 5 5 3 3 3 3 3 3 4 3 2 1 0 1 2 2 2 2 1 1 1 1 0
12 9 9 9 7 6 7 6 6 6 5 6 5 5 1 4 5 5 5 5 5 5 4 4 3 3 3 3 3 3 3 2 1 1 2 2 2 2 2 2 1 1 1 1
9 7 8 8 8 6 7 7 6 6 7 7 4 2 3 5 6 5 6 7 6 5 4 4 4 4 3 3 4 4 4 3 2 2 1 1 1 1 1 1 2 1 0 0
6 7 5 7 8 7 7 7 7 7 9 8 3 2 5 6 7 6 6 6 6 5 4 4 4 4 3 4 4 3 3 2 1 1 1 1 1 2 2 2 2 1 1 1
6 7 7 6 6 7 7 7 5 6 6 7 5 3 4 7 7 6 6 5 5 6 5 4 4 4 4 4 4 3 3 1 1 0 1 0 1 1 1 2 2 2 2 1
6 6 7 6 6 8 6 8 6 5 6 7 6 2 3 5 5 5 5 5 5 5 5 4 4 4 4 4 4 3 2 1 1 0 1 2 1 1 1 1 1 1 1 1
5 5 7 8 9 9 8 8 7 5 6 6 6 1 4 5 4 4 5 5 5 5 5 5 5 4 4 3 3 2 1 1 0 0 0 1 1 1 1 1 1 1 1 1
4 4 7 8 6 5 6 6 6 6 6 7 7 1 4 5 3 3 5 5 6 6 4 4 4 3 3 2 2 1 1 0 1 1 1 1 0 1 1 1 1 1 1 1
3 5 7 9 7 7 6 6 6 7 7 7 7 1 4 4 3 3 4 5 6 6 5 4 3 3 3 2 2 1 1 1 0 1 1 0 0 1 1 1 1 1 1 1
3 6 8 10 9 9 8 8 7 8 7 8 6 2 2 3 3 2 2 3 4 5 5 4 3 3 2 2 1 1 1 1 1 0 0 1 1 1 1 1 1 1 1 1
2 5 8 11 9 9 9 9 8 7 6 5 5 2 4 5 4 2 2 2 3 4 4 4 3 3 2 1 1 1 1 0 1 0 0 1 0 1 1 0 0 0 1 2
5 6 8 9 9 10 9 7 5 4 4 5 4 1 3 4 2 1 2 2 2 2 3 4 3 3 2 1 1 1 1 1 1 0 0 0 0 1 1 1 1 1 1 2
6 6 6 9 9 11 4 2 2 2 3 4 3 4 4 2 1 2 3 3 2 2 3 3 3 3 3 2 1 1 1 0 0 0 1 1 1 1 1 1 1 1 1 2
5 6 7 7 9 8 3 2 3 4 2 5 5 4 3 2 2 3 3 3 2 3 4 4 3 3 3 2 1 1 0 0 1 1 1 1 1 1 1 1 1 1 2 2
6 6 7 8 9 8 2 3 3 3 2 6 5 4 4 2 1 1 4 3 3 4 4 3 2 2 2 2 2 1 1 1 2 2 2 1 1 1 1 1 2 2 2 2
7 7 9 9 9 4 3 4 3 3 2 5 5 4 4 3 3 2 2 3 4 3 3 2 1 2 2 1 2 1 1 1 2 2 2 1 1 1 1 2 2 2 2 2
5 6 6 6 7 3 4 3 3 3 4 4 4 4 4 4 4 4 3 3 3 2 2 2 1 1 1 1 1 1 1 1 1 1 2 1 1 2 2 1 2 2 3 3
3 2 3 1 0 3 4 5 5 4 3 3 3 4 3 3 2 2 2 2 1 2 2 1 1 1 1 1 1 1 1 1 2 1 2 2 2 2 2 2 2 3 3 3
3 2 3 1 2 2 4 5 4 4 3 3 3 2 2 2 2 2 2 1 1 0 1 1 1 1 1 1 1 0 1 1 2 2 3 3 2 3 2 2 2 2 2 2
6 4 3 2 1 0 2 3 3 3 2 2 2 1 1 2 2 2 1 0 0 1 0 0 1 1 1 1 1 1 1 1 2 2 3 3 3 3 2 2 2 2 1 0
5 3 3 3 2 3 3 1 1 1 1 1 1 1 1 1 1 1 1 0 0 0 1 1 1 1 1 1 1 1 1 2 2 3 3 3 2 2 3 3 2 2 3 3
Wind_Direction
236 239 245 252 251 268 279 278 260 257 239 216 247 246 205 180 185 180 166 165 172 150 140 133 128 124 120 110 111 119 137 127 159 176 228 241 254 271 248 218 151 169 197 234
244 244 249 257 262 270 272 272 268 264 241 239 243 245 209 183 180 183 164 158 155 135 121 124 128 123 125 126 125 130 132 127 179 90 302 281 280 258 245 1 125 170 177 207
241 250 250 244 246 255 257 255 265 269 264 248 237 250 214 170 164 160 158 162 148 135 125 128 130 124 130 126 144 145 131 111 91 303 294 326 320 265 238 127 156 162 170 184
257 256 253 250 248 257 266 266 266 270 272 266 247 258 205 183 167 161 167 166 141 130 123 127 132 125 123 125 135 119 109 88 70 335 327 299 287 307 324 14 104 227 201 178
258 254 253 251 249 255 271 270 267 271 272 282 283 271 242 175 174 169 169 158 136 113 105 111 123 121 126 122 117 111 106 101 85 343 315 309 318 323 353 358 3 295 239 206
264 262 258 258 251 246 260 272 276 266 261 265 261 257 255 196 173 165 159 144 124 119 124 137 134 128 129 125 120 117 129 139 144 79 0 334 337 339 344 319 313 297 259 145
262 253 257 260 256 242 252 267 279 278 267 261 242 245 262 130 129 148 145 133 121 119 122 121 125 119 108 114 112 107 108 96 85 60 7 343 335 317 283 279 279 291 319 83
263 260 243 248 256 262 254 253 262 286 292 292 257 254 114 111 118 131 133 133 135 131 132 132 123 111 105 99 100 98 99 91 68 46 353 314 323 304 312 299 289 283 326 90
271 271 262 257 259 258 266 269 270 282 286 286 273 158 138 141 127 124 128 133 141 137 130 123 112 111 104 94 87 85 94 105 109 124 255 268 291 326 338 317 287 310 5 297
282 285 267 253 264 255 261 278 292 284 295 297 276 228 159 155 148 143 136 136 137 130 123 113 108 98 84 89 93 92 93 89 80 31 308 1 4 329 319 302 354 15 341 337
284 279 281 278 262 272 260 260 261 285 296 296 297 334 109 140 134 143 138 129 120 120 124 118 110 103 89 89 92 87 91 98 93 90 354 18 9 337 327 321 337 330 331 334
295 286 281 274 277 274 271 267 268 271 282 291 291 316 78 100 111 134 130 130 128 119 119 121 111 105 101 98 100 101 97 125 175 186 75 33 12 343 327 314 304 321 339 311
318 291 275 268 271 281 292 286 292 291 284 286 288 257 112 105 109 115 115 118 122 117 113 110 113 112 109 106 99 107 146 220 225 139 103 79 31 344 323 329 339 353 2 352
271 275 272 277 294 297 283 287 295 288 283 291 295 234 139 127 117 103 108 117 125 130 132 126 124 120 116 116 114 138 187 152 147 109 113 96 11 344 334 359 13 17 0 344
259 264 273 277 277 279 284 291 289 276 276 281 293 298 103 97 99 111 128 133 144 142 140 137 134 126 127 127 123 112 44 54 58 62 107 90 9 10 -0 20 21 357 323 323
272 273 281 280 272 275 280 280 280 282 281 280 298 8 70 73 62 78 108 141 156 145 144 139 132 124 124 121 130 108 73 122 119 320 350 93 4 350 331 348 310 336 339 333
248 266 275 275 279 281 272 284 280 290 310 308 302 360 69 70 53 75 137 169 155 133 141 136 134 126 121 120 131 122 126 117 149 218 306 60 306 297 294 303 345 331 319 309
250 261 265 270 274 269 266 338 319 310 346 341 7 56 58 54 93 133 132 135 118 100 101 110 119 124 126 123 132 132 136 163 255 267 285 293 283 270 267 277 295 285 288 283
223 244 259 264 266 267 258 322 311 297 326 24 27 35 21 25 99 100 84 98 95 89 94 99 110 126 125 124 128 125 142 255 271 281 290 304 300 290 282 296 307 291 284 278
213 223 248 263 270 271 309 333 312 269 228 40 34 22 358 7 325 73 65 79 93 88 86 92 114 119 124 136 134 158 225 253 267 277 290 301 315 311 313 287 275 275 267 265
224 230 242 259 265 271 14 355 320 286 10 29 34 25 7 21 26 50 76 86 99 102 110 106 109 116 121 135 148 192 238 283 273 274 283 297 293 260 236 243 244 254 262 268
236 246 246 257 264 265 32 14 33 50 47 41 43 38 30 38 53 54 61 89 111 121 124 124 124 134 140 145 174 223 245 277 274 278 283 279 265 275 269 249 260 255 261 261
239 266 270 276 262 88 82 71 83 74 52 47 47 44 41 43 42 39 47 43 107 137 131 145 187 173 169 173 202 244 264 287 295 297 285 277 269 260 257 246 239 247 252 263
233 228 260 238 124 92 84 69 69 63 47 44 52 58 53 50 32 31 48 61 26 29 157 167 203 214 197 213 212 261 277 289 283 286 282 268 253 246 242 242 248 249 263 277
311 314 293 282 355 92 88 55 48 43 40 43 54 66 60 60 56 41 34 72 76 19 355 216 251 251 242 245 250 252 275 272 279 276 277 274 266 253 228 227 255 258 323 107
304 309 295 294 339 320 316 338 19 21 27 60 50 56 45 36 37 22 10 105 84 5 37 6 311 300 295 283 268 262 258 241 254 271 269 270 265 235 227 217 227 228 216 186
Height
1476 1478 1477 1470 1466 1466 1467 1471 1473 1466 1460 1466 1471 1473 1472 1474 1476 1478 1480 1483 1485 1488 1490 1491 1493 1493 1494 1494 1494 1495 1495 1495 1494 1494 1495 1495 1496 1496 1497 1497 1497 1497 1498 1498
1474 1474 1466 1463 1462 1464 1467 1471 1469 1463 1459 1464 1469 1470 1468 1470 1473 1476 1478 1481 1483 1486 1488 1490 1491 1492 1493 1493 1493 1494 1494 1493 1493 1493 1493 1494 1494 1495 1495 1495 1494 1495 1496 1496
1471 1465 1459 1459 1462 1466 1466 1467 1466 1464 1459 1460 1466 1473 1470 1469 1472 1474 1477 1479 1481 1484 1487 1489 1491 1491 1492 1492 1492 1493 1493 1492 1492 1492 1492 1493 1493 1493 1493 1493 1493 1493 1494 1495
1462 1457 1456 1458 1460 1462 1465 1457 1459 1460 1465 1467 1465 1480 1473 1469 1471 1473 1476 1478 1480 1483 1486 1488 1490 1490 1491 1491 1492 1492 1492 1492 1492 1491 1491 1491 1491 1491 1492 1491 1491 1492 1492 1492
1460 1454 1454 1457 1457 1456 1458 1453 1455 1458 1464 1470 1467 1475 1473 1465 1471 1472 1474 1477 1480 1482 1485 1487 1489 1490 1490 1491 1491 1491 1491 1491 1491 1491 1491 1490 1491 1491 1491 1491 1490 1491 1491 1491
1453 1450 1449 1449 1449 1451 1452 1454 1455 1456 1462 1482 1472 1477 1476 1466 1468 1470 1472 1475 1479 1482 1484 1486 1488 1489 1490 1490 1490 1490 1490 1490 1490 1490 1490 1490 1489 1489 1489 1490 1490 1489 1489 1490
1456 1450 1447 1447 1450 1451 1453 1464 1478 1481 1482 1479 1464 1470 1473 1461 1462 1467 1471 1474 1478 1481 1484 1486 1487 1488 1489 1489 1489 1489 1489 1489 1489 1488 1489 1489 1488 1488 1488 1488 1488 1488 1488 1488
1464 1462 1449 1446 1449 1453 1454 1461 1482 1493 1489 1475 1464 1473 1469 1463 1464 1467 1470 1474 1477 1481 1483 1485 1486 1488 1488 1489 1489 1489 1488 1488 1488 1488 1489 1488 1487 1487 1487 1487 1487 1487 1487 1487
1460 1460 1446 1444 1444 1447 1454 1457 1454 1467 1470 1477 1472 1469 1468 1463 1464 1467 1470 1473 1477 1480 1482 1484 1486 1487 1488 1488 1488 1489 1489 1489 1488 1488 1488 1487 1487 1486 1486 1486 1486 1486 1486 1486
1450 1459 1448 1443 1443 1443 1446 1450 1458 1470 1481 1486 1477 1470 1471 1467 1465 1466 1469 1473 1476 1479 1482 1484 1485 1487 1487 1488 1488 1488 1488 1488 1488 1488 1487 1487 1486 1486 1485 1485 1485 1485 1485 1484
1447 1458 1455 1449 1451 1451 1449 1453 1455 1459 1464 1480 1485 1478 1459 1462 1463 1465 1468 1472 1475 1478 1481 1483 1485 1486 1487 1487 1488 1488 1488 1488 1488 1487 1487 1486 1486 1485 1485 1485 1484 1484 1483 1483
1449 1454 1461 1454 1445 1441 1443 1447 1452 1468 1470 1466 1474 1477 1457 1459 1462 1465 1468 1472 1475 1479 1481 1483 1485 1486 1487 1487 1487 1488 1488 1487 1487 1487 1486 1486 1485 1485 1484 1484 1483 1483 1482 1482
1453 1460 1470 1465 1457 1448 1448 1446 1447 1451 1459 1466 1473 1476 1459 1461 1464 1466 1468 1472 1475 1478 1481 1483 1485 1486 1486 1487 1487 1487 1487 1487 1487 1486 1485 1485 1484 1484 1483 1483 1483 1482 1481 1481
1455 1460 1467 1473 1464 1455 1454 1451 1449 1454 1464 1467 1465 1466 1463 1462 1464 1467 1469 1472 1475 1478 1481 1482 1484 1485 1486 1486 1487 1487 1487 1486 1486 1486 1485 1484 1484 1483 1483 1482 1481 1481 1480 1480
1455 1461 1459 1455 1451 1450 1451 1451 1450 1454 1456 1463 1461 1461 1461 1462 1464 1467 1470 1473 1475 1477 1480 1482 1483 1484 1485 1485 1486 1486 1486 1486 1485 1485 1484 1484 1483 1482 1482 1481 1480 1480 1479 1479
1454 1460 1459 1458 1451 1450 1451 1450 1449 1450 1451 1454 1456 1461 1460 1463 1465 1469 1471 1472 1474 1476 1478 1480 1482 1483 1484 1484 1484 1485 1485 1485 1484 1484 1483 1483 1482 1482 1481 1480 1479 1479 1478 1477
1455 1460 1464 1464 1454 1453 1458 1450 1450 1452 1452 1454 1460 1461 1460 1464 1467 1469 1471 1473 1475 1475 1477 1478 1480 1481 1482 1483 1483 1483 1484 1484 1483 1483 1483 1482 1481 1480 1480 1479 1478 1477 1476 1476
1456 1460 1462 1462 1462 1471 1456 1445 1446 1451 1453 1454 1456 1459 1461 1464 1467 1469 1470 1472 1474 1475 1477 1478 1479 1480 1481 1482 1482 1482 1483 1483 1482 1482 1482 1481 1480 1479 1478 1477 1476 1475 1475 1474
1452 1458 1462 1464 1465 1461 1452 1449 1450 1453 1457 1457 1459 1460 1462 1464 1466 1469 1471 1472 1474 1475 1476 1477 1478 1479 1480 1481 1481 1481 1482 1482 1481 1481 1480 1480 1479 1478 1477 1476 1475 1474 1474 1473
1449 1454 1461 1461 1468 1469 1459 1450 1449 1453 1460 1459 1461 1463 1465 1465 1467 1470 1471 1472 1473 1475 1476 1477 1478 1478 1479 1480 1480 1480 1480 1480 1480 1480 1479 1478 1477 1477 1476 1475 1474 1473 1473 1472
1454 1457 1460 1462 1465 1460 1455 1451 1451 1463 1468 1463 1464 1466 1467 1468 1470 1471 1472 1472 1473 1474 1475 1476 1477 1477 1478 1479 1479 1479 1479 1479 1478 1478 1478 1477 1476 1475 1474 1473 1473 1472 1471 1471
1454 1457 1459 1461 1467 1467 1456 1455 1460 1465 1464 1464 1465 1467 1468 1468 1469 1470 1472 1472 1473 1474 1475 1476 1476 1477 1477 1477 1477 1477 1477 1477 1477 1476 1476 1475 1474 1474 1473 1472 1471 1471 1470 1469
1451 1455 1455 1459 1463 1459 1458 1459 1462 1463 1464 1465 1466 1467 1468 1469 1469 1471 1471 1472 1473 1474 1474 1475 1475 1476 1476 1476 1476 1476 1476 1475 1475 1474 1474 1473 1473 1472 1471 1471 1470 1469 1469 1468
1448 1450 1452 1454 1456 1457 1459 1461 1462 1463 1464 1466 1467 1468 1469 1469 1470 1470 1471 1472 1473 1473 1473 1474 1474 1474 1474 1474 1474 1474 1474 1473 1473 1472 1472 1471 1471 1470 1469 1469 1468 1468 1467 1467
1453 1452 1453 1455 1457 1458 1460 1462 1463 1464 1465 1466 1467 1468 1469 1469 1470 1470 1471 1471 1472 1472 1473 1473 1473 1473 1473 1473 1473 1472 1472 1472 1471 1471 1470 1469 1469 1468 1468 1467 1467 1466 1466 1465
1456 1457 1459 1460 1460 1461 1462 1462 1463 1464 1465 1466 1467 1468 1468 1469 1469 1470 1470 1470 1471 1471 1471 1471 1472 1472 1472 1472 1471 1471 1470 1470 1469 1469 1468 1468 1467 1467 1466 1466 1465 1464 1464 1463